Precipitable_Water
1.53 1.58 1.72 1.81 1.98 1.90 1.79 1.83 1.77 1.87 1.91 1.81 1.79 1.80 1.80 1.82 1.84 1.79 1.80 1.80 1.78 1.74 1.70 1.56 1.54 1.50 1.12 1.26 1.37 1.41 1.46 1.41 1.25 1.42 1.56 1.41 1.34 1.34 1.34 1.21 1.08 1.07 0.96
1.54 1.66 1.74 1.85 1.79 1.73 1.82 1.85 1.88 1.73 1.82 1.88 1.89 1.82 1.81 1.84 1.82 1.77 1.76 1.84 1.82 1.79 1.87 1.84 1.71 1.67 1.55 1.40 1.45 1.30 1.39 1.37 1.31 1.24 1.41 1.40 1.35 1.38 1.34 1.26 1.19 1.20 1.17
1.60 1.66 1.74 1.81 1.75 1.60 1.75 1.78 1.87 1.84 1.79 1.75 1.74 1.74 1.77 1.77 1.80 1.82 1.81 1.83 1.90 1.95 2.04 2.07 2.03 2.01 1.94 1.83 1.55 1.43 1.44 1.38 1.36 1.37 1.35 1.46 1.41 1.38 1.28 1.27 1.25 1.29 1.29
1.65 1.68 1.74 1.80 1.82 1.72 1.76 1.85 1.83 1.89 1.89 1.85 1.86 1.85 1.86 1.87 1.91 1.92 1.92 1.99 2.07 2.03 2.05 2.05 2.10 2.09 2.02 2.16 2.00 1.79 1.52 1.45 1.37 1.42 1.45 1.41 1.42 1.44 1.32 1.22 1.17 1.34 1.28
1.63 1.66 1.64 1.64 1.57 1.44 1.56 1.69 1.67 1.82 1.92 1.96 1.95 1.98 1.99 1.96 1.99 1.99 2.04 2.18 2.10 2.17 2.23 2.23 1.80 1.67 1.53 1.79 1.89 1.95 1.87 1.65 1.48 1.42 1.49 1.45 1.45 1.44 1.27 1.29 1.16 1.30 1.29
1.61 1.59 1.47 1.44 1.46 1.42 1.43 1.56 1.63 1.66 1.78 1.86 1.89 1.97 2.03 2.10 2.27 2.36 2.48 2.29 1.97 1.67 1.33 1.48 1.58 1.70 1.53 1.62 1.70 1.92 1.89 1.82 1.66 1.53 1.50 1.44 1.49 1.56 1.57 1.33 1.28 1.17 1.11
1.44 1.42 1.39 1.37 1.45 1.54 1.62 1.73 1.89 1.83 1.68 1.43 1.35 1.35 1.30 1.37 1.54 1.68 1.78 1.74 1.60 1.46 1.40 1.39 1.43 1.68 1.63 1.56 1.59 1.77 1.92 1.92 1.90 1.72 1.57 1.50 1.59 1.71 1.66 1.48 1.38 1.29 1.08
1.28 1.18 1.19 1.26 1.26 1.28 1.25 1.16 1.13 1.21 1.24 1.26 1.28 1.30 1.28 1.27 1.39 1.46 1.36 1.25 1.40 1.40 1.41 1.46 1.54 1.66 1.66 1.62 1.45 1.60 1.72 1.74 1.78 1.75 1.66 1.63 1.75 1.75 1.70 1.60 1.51 1.43 1.31
1.10 1.11 1.04 1.15 1.17 1.21 1.26 1.32 1.32 1.26 1.26 1.26 1.31 1.28 1.18 1.17 1.37 1.45 1.41 1.30 1.18 1.17 1.27 1.41 1.51 1.66 1.73 1.71 1.46 1.38 1.52 1.61 1.81 1.73 1.65 1.62 1.65 1.65 1.66 1.58 1.44 1.31 1.20
1.31 1.36 1.40 1.46 1.37 1.29 1.26 1.22 1.26 1.28 1.25 1.39 1.34 1.38 1.37 1.27 1.38 1.41 1.50 1.38 1.34 1.37 1.30 1.20 1.37 1.42 1.57 1.64 1.52 1.40 1.35 1.49 1.58 1.65 1.59 1.51 1.43 1.37 1.61 1.57 1.40 1.24 1.17
1.44 1.46 1.38 1.33 1.26 1.28 1.28 1.35 1.33 1.30 1.35 1.42 1.42 1.38 1.31 1.31 1.26 1.25 1.37 1.52 1.47 1.48 1.42 1.38 1.23 1.36 1.38 1.52 1.58 1.58 1.58 1.54 1.51 1.53 1.49 1.43 1.43 1.31 1.46 1.46 1.38 1.28 1.16
1.44 1.40 1.34 1.32 1.32 1.45 1.48 1.39 1.38 1.44 1.39 1.36 1.33 1.21 1.18 1.19 1.12 1.22 1.38 1.63 1.78 1.78 1.66 1.64 1.57 1.28 1.29 1.35 1.39 1.53 1.64 1.63 1.61 1.47 1.41 1.36 1.38 1.36 1.43 1.44 1.40 1.32 1.25
1.48 1.44 1.43 1.41 1.39 1.39 1.36 1.44 1.45 1.42 1.35 1.26 1.14 1.04 1.09 1.18 1.15 1.30 1.38 1.44 1.62 1.52 1.43 1.44 1.48 1.46 1.37 1.30 1.32 1.36 1.46 1.50 1.46 1.40 1.37 1.35 1.40 1.44 1.42 1.41 1.43 1.40 1.33
1.58 1.56 1.57 1.57 1.47 1.53 1.57 1.57 1.44 1.34 1.15 1.07 1.00 1.04 1.11 1.22 1.29 1.24 1.28 1.30 1.30 1.23 1.25 1.30 1.39 1.39 1.40 1.39 1.37 1.32 1.34 1.31 1.34 1.36 1.39 1.40 1.42 1.38 1.36 1.42 1.39 1.39 1.27
1.86 1.72 1.62 1.56 1.59 1.55 1.54 1.43 1.30 1.24 1.13 1.04 1.13 1.18 1.16 1.17 1.22 1.20 1.14 1.10 1.13 1.21 1.24 1.23 1.16 1.16 1.16 1.20 1.26 1.30 1.34 1.33 1.31 1.27 1.30 1.29 1.36 1.42 1.39 1.45 1.48 1.43 1.29
1.68 1.56 1.54 1.50 1.45 1.41 1.31 1.24 1.25 1.15 1.13 1.19 1.19 1.15 1.15 1.13 1.12 1.11 1.12 1.11 1.12 1.17 1.17 1.17 1.18 1.18 1.12 1.13 1.16 1.22 1.26 1.31 1.34 1.38 1.34 1.33 1.40 1.34 1.37 1.33 1.41 1.42 1.36
1.56 1.54 1.43 1.35 1.27 1.17 1.06 0.97 0.93 1.10 1.19 1.16 1.14 1.12 1.09 1.07 1.05 1.01 0.99 0.97 0.96 0.96 0.91 0.96 1.05 1.17 1.25 1.27 1.28 1.25 1.24 1.33 1.41 1.39 1.37 1.36 1.43 1.39 1.30 1.30 1.34 1.32 1.34
1.39 1.29 1.18 1.11 1.06 1.01 0.98 1.01 1.05 0.99 0.93 0.98 1.07 1.02 0.99 0.98 0.99 0.95 0.88 0.88 0.80 0.84 0.85 0.86 0.89 1.02 1.10 1.17 1.25 1.29 1.32 1.33 1.35 1.38 1.38 1.40 1.42 1.43 1.44 1.34 1.29 1.28 1.31
1.16 1.09 1.06 1.00 0.98 1.02 1.04 1.01 0.98 0.96 0.92 0.91 0.94 0.93 0.97 0.96 0.93 0.90 0.92 0.88 0.85 0.86 0.87 0.86 0.91 0.95 1.03 1.13 1.21 1.31 1.40 1.42 1.38 1.36 1.40 1.39 1.42 1.43 1.40 1.41 1.37 1.28 1.27
1.09 1.03 1.00 0.95 1.00 0.99 1.00 0.97 0.97 0.95 0.93 0.92 0.90 0.86 0.87 0.85 0.79 0.82 0.88 0.90 0.90 0.91 0.92 0.91 0.93 0.99 1.05 1.08 1.13 1.19 1.25 1.31 1.39 1.41 1.36 1.37 1.41 1.40 1.35 1.39 1.39 1.28 1.27
1.04 1.04 1.03 1.02 1.00 1.00 1.00 0.97 0.97 0.94 0.91 0.88 0.86 0.87 0.87 0.81 0.80 0.82 0.84 0.87 0.87 0.89 0.92 0.94 0.99 1.06 1.11 1.11 1.12 1.17 1.19 1.21 1.26 1.28 1.29 1.35 1.37 1.31 1.36 1.36 1.36 1.39 1.29
1.02 1.04 1.04 1.02 1.02 0.99 0.98 0.98 0.94 0.91 0.87 0.83 0.81 0.84 0.83 0.79 0.76 0.75 0.75 0.77 0.79 0.80 0.83 0.86 0.92 1.02 1.10 1.15 1.20 1.21 1.25 1.30 1.31 1.34 1.38 1.35 1.34 1.35 1.33 1.35 1.31 1.29 1.29
1.03 1.04 1.03 1.03 1.02 0.99 0.96 0.94 0.92 0.89 0.81 0.78 0.79 0.75 0.71 0.66 0.65 0.65 0.66 0.70 0.73 0.75 0.80 0.81 0.81 0.85 0.97 1.10 1.20 1.29 1.32 1.38 1.44 1.50 1.42 1.39 1.39 1.35 1.34 1.29 1.28 1.29 1.28
1.03 1.01 0.99 0.99 0.96 0.95 0.93 0.90 0.87 0.79 0.72 0.74 0.69 0.59 0.54 0.55 0.55 0.59 0.62 0.65 0.67 0.69 0.70 0.72 0.73 0.77 0.82 0.90 1.00 1.15 1.35 1.34 1.44 1.55 1.57 1.47 1.40 1.44 1.42 1.41 1.34 1.37 1.30
0.99 0.99 0.98 0.97 0.94 0.92 0.87 0.82 0.77 0.68 0.65 0.57 0.50 0.48 0.49 0.47 0.45 0.47 0.53 0.59 0.59 0.61 0.65 0.69 0.72 0.74 0.78 0.83 0.87 0.94 1.00 1.12 1.29 1.46 1.47 1.54 1.56 1.59 1.46 1.53 1.49 1.39 1.33
0.98 0.97 0.96 0.94 0.92 0.86 0.77 0.71 0.64 0.51 0.44 0.48 0.50 0.46 0.47 0.45 0.43 0.43 0.48 0.51 0.55 0.61 0.67 0.70 0.72 0.77 0.79 0.81 0.85 0.88 0.92 0.98 1.06 1.25 1.38 1.47 1.48 1.52 1.54 1.56 1.46 1.50 1.42
Wind_Speed
6 5 5 6 10 13 12 9 9 8 7 7 7 7 7 7 7 7 7 8 8 9 8 9 11 11 12 12 12 13 13 13 12 11 13 13 13 12 11 11 11 11 10
5 4 4 3 1 8 12 11 10 10 10 10 9 10 10 10 11 12 12 12 13 13 13 13 13 15 15 17 16 15 16 15 13 13 13 14 14 14 13 13 13 13 12
5 4 4 3 3 3 7 8 9 9 10 10 11 12 13 14 15 16 17 18 17 15 14 14 16 18 20 20 21 20 18 18 16 15 14 15 14 14 14 14 14 14 14
5 4 4 4 5 5 5 7 8 10 11 11 12 14 15 17 18 20 21 20 18 16 16 16 19 23 28 28 25 23 22 21 18 17 15 16 16 15 15 14 14 14 15
5 5 6 7 6 7 8 9 9 10 11 12 14 16 18 19 21 23 25 23 18 16 18 20 15 17 16 15 18 28 25 23 21 20 18 17 17 16 16 15 15 15 15
5 5 4 5 6 6 7 7 9 10 12 15 16 18 19 21 23 25 25 13 9 20 18 14 14 11 13 13 13 10 16 26 26 23 22 21 20 19 18 16 14 14 14
3 4 6 6 5 6 7 8 9 9 10 12 14 16 18 20 22 22 22 22 21 20 19 18 17 15 15 13 12 10 13 17 23 26 24 21 21 22 20 18 17 15 16
3 3 2 3 3 3 3 4 5 6 8 10 12 14 16 18 19 19 20 21 20 19 19 18 18 17 15 14 12 9 9 8 11 17 22 21 18 18 21 20 18 17 16
2 1 2 3 2 1 1 3 5 7 9 12 14 16 17 18 19 19 20 20 20 20 19 18 17 16 17 15 14 13 11 10 10 14 17 19 19 18 18 18 17 15 15
3 2 2 2 1 1 3 4 7 10 13 15 16 17 19 20 20 20 20 19 19 19 18 18 17 17 17 17 17 16 15 14 14 13 17 17 19 19 20 20 19 18 16
2 2 1 1 2 4 6 8 11 14 16 16 18 19 20 21 23 22 22 20 19 19 19 18 18 18 17 17 18 20 20 19 18 17 17 17 17 19 20 21 21 21 20
3 3 3 4 6 7 9 12 14 16 17 19 19 19 22 23 23 21 18 18 18 19 18 19 18 18 19 19 19 20 21 22 21 22 23 23 22 22 23 23 23 23 22
5 5 6 7 8 10 12 14 15 17 19 19 20 22 22 22 19 18 17 18 19 21 21 21 20 20 20 21 22 22 22 23 23 24 25 26 26 26 25 26 26 25 24
7 7 8 9 11 13 15 16 18 19 19 19 21 21 21 21 19 20 20 21 23 24 24 23 23 23 23 23 23 24 25 25 26 26 27 27 28 27 28 28 28 28 27
8 8 10 11 13 14 14 16 16 18 20 20 21 21 20 20 21 22 22 23 24 24 24 24 24 24 24 25 25 25 26 27 28 29 29 29 29 29 29 29 29 29 28
10 10 10 13 14 15 16 16 18 19 18 19 20 19 20 20 22 23 24 25 26 25 24 24 24 25 25 26 27 27 27 28 29 30 31 31 32 31 31 31 31 31 30
12 13 12 14 15 15 18 18 18 18 19 20 19 19 21 23 25 26 27 27 27 26 25 26 25 25 25 26 26 27 29 29 30 31 31 32 32 33 33 33 33 32 32
12 12 13 16 17 18 18 17 18 18 19 20 21 22 24 25 26 27 28 27 26 26 26 27 27 27 28 29 29 28 28 28 29 30 31 31 32 33 33 34 34 33 33
13 13 15 17 18 17 16 17 19 20 20 20 22 24 25 26 27 27 26 25 25 26 26 27 27 27 28 27 27 28 30 30 30 30 31 32 32 33 33 33 34 34 34
13 14 15 15 14 15 17 18 19 19 20 21 22 23 25 24 24 24 25 25 26 26 27 27 28 28 28 29 29 29 30 30 31 32 33 33 33 33 34 34 34 34 34
14 13 13 14 15 17 18 17 18 19 19 20 20 23 24 23 23 24 24 25 26 27 27 27 27 28 28 29 31 31 32 32 34 35 35 36 36 36 35 35 35 36 35
13 13 14 15 17 18 17 17 17 18 19 20 21 21 22 22 23 24 25 26 27 28 28 29 29 28 28 28 29 31 32 32 33 34 35 37 38 39 38 37 36 36 36
13 14 16 16 16 16 16 16 17 18 18 18 19 20 22 22 23 24 25 26 27 28 29 29 30 30 30 31 32 31 32 34 35 35 36 37 39 40 41 40 39 38 38
14 15 15 15 15 16 16 16 17 17 17 18 20 21 22 22 24 25 27 28 29 30 31 31 31 32 33 33 34 33 33 34 34 35 36 37 37 39 40 40 40 40 39
15 15 15 15 15 16 16 16 16 17 18 19 20 21 22 24 26 28 29 30 31 32 32 33 34 34 34 35 35 36 37 38 37 37 34 36 33 34 37 38 39 41 41
15 15 16 16 16 16 15 16 17 18 19 19 21 23 24 25 27 29 30 31 32 32 33 34 35 35 36 36 37 38 38 37 37 37 37 36 34 35 35 37 39 40 40
Wind_Direction
227 240 260 290 254 230 225 227 221 228 231 240 247 256 260 265 270 276 279 280 279 276 280 276 273 273 267 265 261 258 253 258 263 264 248 243 243 246 251 252 250 254 256
226 238 254 277 97 204 220 228 228 235 240 247 254 259 264 266 270 273 275 278 277 278 278 278 280 277 273 265 263 262 255 255 258 256 249 241 244 248 253 256 255 256 258
215 235 238 238 222 207 212 216 227 239 249 255 260 264 267 270 273 275 275 275 277 274 274 280 283 281 276 267 260 258 256 255 255 252 252 242 243 249 255 259 258 257 259
219 237 239 244 243 236 222 220 237 251 255 262 267 271 274 275 276 276 275 272 268 265 272 283 293 288 287 260 261 254 253 251 251 248 247 240 243 250 254 257 256 256 260
232 250 260 258 253 251 240 243 255 263 267 271 274 278 280 281 280 277 275 269 260 271 283 285 302 300 305 313 291 251 245 247 248 245 246 244 246 249 251 259 257 256 258
245 262 263 258 253 247 245 251 264 271 278 282 282 283 284 286 285 285 283 306 325 300 329 299 317 303 314 312 315 253 252 248 246 247 243 243 247 248 249 252 257 258 258
235 261 273 262 251 250 255 264 274 283 288 291 294 294 294 295 293 292 292 294 300 302 300 300 299 295 301 307 311 277 271 262 246 240 240 241 246 245 245 248 251 259 261
239 270 252 225 232 246 257 270 289 299 303 308 308 308 306 304 302 299 300 301 300 300 298 299 294 287 286 292 297 279 282 271 245 234 236 240 243 248 243 244 249 256 262
156 121 130 147 154 173 281 307 314 315 314 314 314 314 315 312 309 304 303 305 302 298 299 297 293 285 283 282 275 272 273 271 255 241 237 237 242 248 243 243 246 252 260
160 141 135 156 175 305 314 318 316 315 314 314 315 315 314 313 310 305 303 307 303 302 301 293 288 287 281 274 268 263 262 265 261 255 244 244 246 248 243 244 246 250 257
180 166 174 266 292 302 306 310 312 312 313 312 313 314 315 315 314 307 296 295 301 302 303 299 291 286 284 276 268 263 261 261 259 253 249 248 253 251 247 247 250 253 257
216 243 266 286 296 296 304 309 311 311 312 312 312 313 315 315 317 315 306 299 301 301 303 302 297 287 281 277 273 268 262 260 258 254 254 254 255 256 253 253 254 256 259
240 266 277 286 295 301 305 308 311 313 312 311 311 313 315 317 317 312 310 304 301 301 300 298 296 290 286 279 271 268 265 261 259 257 256 257 257 258 256 254 255 257 258
249 268 284 294 298 300 305 306 309 312 313 314 314 314 316 317 316 315 309 305 303 301 298 295 291 287 284 281 276 270 266 263 261 260 260 260 259 258 256 255 256 257 257
256 273 287 296 300 306 306 309 313 315 315 314 315 316 317 318 317 317 315 312 308 303 300 296 292 288 284 280 277 273 269 266 263 262 261 261 259 257 256 255 256 257 257
275 283 293 299 302 305 308 309 312 315 317 319 317 318 318 318 317 316 315 312 310 307 303 298 293 290 287 283 279 274 271 268 266 264 262 261 260 258 257 256 254 254 256
278 285 293 299 304 306 308 308 309 311 315 316 316 319 319 316 316 315 314 312 310 307 303 300 296 293 288 285 282 278 273 270 269 266 264 262 261 260 257 256 253 252 252
284 289 295 299 302 304 306 308 310 311 312 312 312 317 317 317 317 316 316 314 311 310 307 304 299 295 290 285 282 279 277 273 269 266 266 264 262 261 258 256 253 252 251
286 293 299 301 300 303 305 310 311 313 313 313 313 317 318 318 318 319 319 319 317 314 312 309 306 299 293 291 289 282 277 274 271 268 266 265 263 260 259 257 253 251 249
287 294 300 302 302 305 307 310 312 313 314 315 318 321 322 323 325 324 324 324 322 320 317 313 309 305 299 293 288 286 281 277 274 270 268 265 263 262 259 257 254 251 248
293 294 295 301 304 307 309 311 311 313 314 316 318 323 325 325 325 326 326 325 324 323 322 320 317 314 307 299 292 287 284 280 275 272 270 266 263 260 259 256 254 251 249
296 293 297 300 302 305 307 309 310 313 316 318 320 322 326 327 326 326 326 325 324 324 323 321 318 315 312 309 303 294 287 283 279 276 272 268 264 259 256 255 253 251 249
294 295 299 301 304 306 307 309 311 313 315 318 320 323 325 326 327 327 328 328 327 326 325 324 322 319 315 310 306 300 295 287 281 279 276 273 266 259 256 252 251 250 248
297 300 300 300 303 303 305 307 310 313 315 316 318 321 324 325 326 327 327 327 326 326 326 324 323 321 319 315 311 303 296 294 289 282 277 276 271 260 254 251 249 248 247
295 298 298 300 302 302 304 306 308 311 312 313 317 318 320 322 323 324 324 324 324 324 324 324 323 322 321 320 318 311 304 295 287 281 285 273 273 264 254 249 250 247 245
296 295 297 298 300 300 300 304 307 310 310 311 313 316 318 320 322 323 323 323 324 324 323 323 323 323 322 322 321 320 316 305 293 282 278 274 273 266 260 254 251 247 245